Location: Gro� Glienicke
(52.4675°N, 13.1079°E)
Time: 19:19:07
(UTC+00:00)

Cosmos 1953 Rocket - Pass Details

Date: 06 July 2020
Orbit: 605 x 634 km, 82.5° (Epoch: 12 August)

Event Time Altitude Azimuth Distance (km) Brightness Sun altitude
Exits shadow 20:12:53 - 177° (S) 2,841 6.5 -5.4°
Reaches altitude 10° 20:15:05 10° 173° (S) 1,952 5.6 -5.6°
Maximum altitude 20:19:18 56° 96° (E) 723 3.7 -6.0°
Drops below altitude 10° 20:23:34 10° 18° (NNE) 1,972 6.6 -6.4°
Sets 20:25:50 0° 14° (NNE) 2,883 7.6 -6.7°
